Location: Kitt Peak
(31.9639°N, 111.5992°W)
Time: 09:48:18
(UTC-07:00)

Tiangong - Visible Passes

Search period start: 24 February 2024 00:00
Search period end: 05 March 2024 00:00
Orbit: 375 x 386 km, 41.5° (Epoch: 24 February)

Date Brightness Start Highest point End Pass type
(mag) Time Alt. Az. Time Alt. Az. Time Alt. Az.
24 Feb -0.2 19:42:44 10° SSW 19:44:12 19° S 19:44:12 19° S visible
25 Feb 0.4 20:17:52 10° WSW 20:18:56 19° WSW 20:18:56 19° WSW visible
26 Feb -1.8 19:17:02 10° SW 19:20:01 48° SSE 19:21:20 27° E visible
27 Feb -1.3 19:52:44 10° W 19:55:41 42° NNW 19:55:44 42° NNW visible
28 Feb -2.2 18:51:27 10° WSW 18:54:33 83° NNW 18:57:39 10° ENE visible
28 Feb 1.0 20:29:15 10° WNW 20:29:58 14° NW 20:29:58 14° NW visible
29 Feb -0.5 19:27:31 10° W 19:30:14 27° NNW 19:31:55 17° NNE visible
01 Mar 0.3 20:04:05 10° NW 20:05:52 16° NNW 20:05:52 16° NNW visible
02 Mar 0.0 19:02:10 10° WNW 19:04:32 20° NNW 19:06:55 10° NE visible
03 Mar 0.2 19:38:33 10° NW 19:40:20 14° N 19:41:18 13° NNE visible
04 Mar 0.6 20:14:07 10° NNW 20:14:56 13° NNW 20:14:56 13° NNW visible
